Dewpoint
52 52 52 51 52 52 51 50 50 50 51 52 53 55 54 54 54 40 23 32 38 60 60 48 45 45 43 38 42 39 33 29 28 27 28 31 30 34 36 35 34 34 35 37 39
51 51 51 52 52 52 52 52 52 50 50 50 51 52 53 54 46 36 45 51 58 60 29 38 37 36 39 40 41 40 33 30 30 30 28 29 32 32 34 35 34 34 36 38 40
51 51 51 51 50 51 50 51 52 52 51 50 50 52 52 51 36 16 56 59 56 56 19 25 29 29 29 32 38 38 35 32 32 32 32 31 32 32 32 33 35 34 35 37 39
50 50 50 51 50 51 51 50 50 51 51 51 51 50 52 44 10 41 50 54 59 57 33 22 29 26 29 26 33 34 35 35 34 33 33 34 35 34 34 35 36 37 37 36 38
50 50 50 50 50 49 49 49 50 51 51 52 51 50 46 36 24 29 50 48 31 43 31 25 28 28 30 29 27 30 33 34 34 36 35 36 35 35 34 35 36 36 36 37 38
49 50 50 50 50 49 49 49 50 51 51 51 50 51 41 31 26 32 35 34 30 30 36 28 23 27 32 31 29 28 26 27 30 31 33 32 33 33 33 34 35 35 31 30 32
50 50 50 50 50 50 49 51 51 52 51 51 50 47 42 32 30 32 31 31 33 25 21 31 24 30 32 32 32 30 28 29 30 30 29 30 30 31 31 32 32 30 30 30 32
51 51 50 50 50 50 50 51 51 51 51 51 50 46 37 31 32 32 32 32 32 34 28 22 27 28 31 31 28 27 29 28 30 31 32 32 28 27 26 26 26 28 27 29 33
50 51 50 50 49 49 51 51 51 50 50 50 46 44 27 39 33 32 32 30 27 31 33 22 20 26 24 23 24 25 24 26 27 27 26 26 27 27 26 26 28 29 31 31 31
50 51 51 50 50 50 51 51 48 48 44 44 39 35 30 16 26 34 29 35 33 27 31 23 18 18 20 20 19 21 22 23 25 26 24 23 25 26 27 25 27 30 31 32 32
50 51 51 51 50 51 47 36 34 34 35 28 23 29 21 18 23 24 25 34 34 30 24 22 15 15 18 22 21 21 23 23 25 25 26 25 25 26 27 25 28 30 32 34 35
50 50 50 51 50 51 42 33 36 38 33 29 27 26 23 23 24 23 22 27 31 24 23 19 15 16 17 19 21 20 20 22 23 23 25 26 25 26 27 28 30 30 31 33 34
51 50 50 50 50 46 38 38 39 41 33 26 24 24 24 27 26 24 22 21 22 24 19 17 17 14 12 16 17 20 20 20 19 23 26 25 25 26 27 29 29 30 33 33 32
51 51 50 50 44 39 35 39 39 41 28 14 25 28 30 31 29 30 27 19 19 20 21 17 16 14 12 12 13 17 19 18 20 22 20 23 20 26 27 30 30 31 31 31 30
51 50 50 49 41 37 36 40 41 40 6 12 27 30 25 26 25 27 29 27 15 19 21 17 15 15 14 13 13 16 18 20 22 22 22 20 20 24 27 28 30 31 31 29 35
51 50 49 43 41 39 38 41 41 29 8 10 20 21 19 21 22 25 25 29 25 14 18 20 16 14 15 12 13 15 16 19 21 20 20 22 22 22 25 30 30 28 26 29 42
50 49 46 43 39 42 42 38 28 14 9 10 20 19 16 14 19 26 23 25 23 16 11 19 18 16 13 13 14 17 21 16 18 19 21 25 24 27 30 27 27 26 30 41 46
49 48 45 42 43 44 40 33 18 9 10 14 17 16 11 12 19 20 23 26 29 19 9 12 18 18 14 14 12 16 21 13 17 18 19 24 23 24 26 27 28 24 31 42 46
48 43 40 43 44 43 38 25 18 20 19 21 19 11 8 10 14 13 16 25 34 30 19 13 17 18 15 12 13 17 19 19 19 21 18 20 24 24 26 24 26 30 29 39 47
40 39 40 45 47 44 36 26 23 25 24 24 21 16 11 10 12 12 15 32 31 33 34 27 24 20 16 12 13 18 20 20 18 20 19 16 22 23 25 24 30 32 34 41 48
40 33 42 45 47 41 33 27 25 25 27 24 22 20 19 15 14 11 17 30 34 32 33 30 29 23 19 16 13 14 18 21 21 17 17 16 18 25 27 28 31 33 38 46 48
36 35 39 45 39 37 31 26 30 27 27 28 27 26 25 23 19 16 17 21 33 32 32 30 30 26 20 17 16 18 20 23 18 23 17 15 15 29 31 33 34 39 43 46 47
33 33 39 42 34 32 29 25 24 25 26 29 29 26 27 25 23 23 25 32 31 33 36 35 28 26 24 20 19 17 18 23 24 25 23 13 14 27 34 33 34 42 44 46 47
37 35 35 36 33 32 29 24 23 24 25 27 27 29 29 26 25 25 30 35 33 33 38 40 34 27 21 19 18 17 15 19 24 19 18 16 16 24 30 33 37 43 45 46 47
37 35 34 33 33 32 29 27 25 25 25 25 27 26 26 26 24 32 30 31 34 38 39 40 29 29 28 25 25 23 15 16 20 21 17 16 16 17 27 30 37 42 45 45 45
40 35 33 35 31 28 28 26 26 28 29 26 25 26 28 27 25 26 26 33 34 37 38 39 32 28 25 25 23 23 20 16 17 20 19 16 18 19 21 20 26 39 43 44 45
40 41 39 32 30 30 31 31 33 34 34 28 29 30 28 28 31 31 32 32 32 32 35 35 37 29 22 23 22 23 23 18 18 19 20 17 21 26 25 24 31 41 43 43 45
Lifted_Index
13 13 13 13 13 12 13 13 13 14 13 13 12 11 11 10 10 8 6 6 7 7 5 3 3 3 2 2 1 2 2 2 1 1 1 1 1 0 0 0 0 0 -0 -0 -0
13 13 13 13 13 13 13 13 13 13 14 13 13 12 11 11 9 8 7 7 8 7 5 4 4 4 3 2 1 1 2 2 1 1 1 1 1 1 0 0 0 0 -0 -0 -0
14 14 14 14 14 14 14 14 13 13 13 14 13 13 12 11 9 8 8 8 7 6 5 4 4 4 3 2 2 1 1 1 1 1 0 0 1 1 1 1 0 0 -0 -0 -0
15 15 14 14 14 15 15 15 14 14 14 14 14 13 12 10 8 8 8 8 6 4 4 4 3 3 3 2 2 2 1 1 1 1 0 0 0 1 1 1 1 1 0 0 -0
15 15 15 15 15 15 15 15 15 15 14 14 14 14 12 10 10 10 10 9 7 5 5 4 3 2 2 2 3 3 2 1 1 1 1 0 1 1 2 2 1 1 1 1 1
16 15 15 15 15 16 16 16 15 15 15 14 14 14 13 11 12 12 11 10 9 7 6 5 4 3 3 3 3 3 2 2 2 2 1 1 1 2 3 2 2 1 2 2 2
15 15 15 15 15 16 16 16 15 15 15 15 14 14 13 13 13 13 13 12 11 9 8 7 6 5 4 4 3 3 3 2 2 2 2 2 2 3 3 3 2 2 2 2 2
15 15 15 16 16 16 16 16 15 15 15 15 15 15 15 14 14 14 13 13 12 11 10 9 7 6 5 4 4 4 3 3 2 2 2 2 3 3 3 3 3 3 3 3 2
15 15 15 15 16 16 16 16 16 16 15 15 15 15 15 16 15 14 13 12 12 11 11 10 9 7 6 5 4 4 4 3 2 2 2 3 4 3 3 3 3 3 3 3 3
15 15 15 15 16 16 16 16 16 15 15 15 15 15 16 16 15 14 13 12 11 11 10 10 9 8 7 6 5 5 4 4 2 2 2 3 4 3 2 3 4 3 3 3 3
15 15 15 15 15 16 16 16 16 16 16 15 16 16 16 16 16 15 14 13 11 10 9 9 8 7 6 6 5 5 4 3 3 2 2 3 3 3 2 3 4 3 3 3 3
15 15 15 15 15 15 15 15 15 15 15 15 15 15 16 16 16 16 15 13 11 10 9 8 7 6 7 6 6 5 4 4 3 2 2 3 3 3 3 3 4 3 3 3 3
15 15 14 14 13 13 12 11 11 12 12 12 11 12 12 13 13 13 13 13 12 10 9 8 7 7 7 7 6 5 4 4 4 3 2 3 3 4 4 3 4 3 3 3 3
14 13 12 11 10 9 8 7 7 7 7 7 7 7 7 8 9 10 10 11 11 10 8 8 8 8 7 7 6 5 5 5 4 3 3 3 4 4 4 4 4 3 3 3 3
11 10 8 7 6 5 5 4 4 4 3 3 3 3 4 4 5 6 7 8 9 8 7 7 8 8 7 7 7 6 6 5 4 4 3 3 4 5 4 4 4 3 3 3 2
8 7 5 4 4 3 3 3 2 2 2 1 1 1 1 2 2 3 4 5 6 6 6 7 7 8 8 7 7 6 6 5 4 3 3 4 4 4 4 3 3 3 3 2 2
6 5 4 3 2 2 2 1 1 1 1 0 0 0 1 1 1 2 2 2 3 4 5 5 6 7 8 7 7 7 5 3 2 2 2 3 3 3 3 3 4 4 3 2 1
4 4 2 2 1 1 0 0 0 0 0 -0 -0 0 -0 -0 0 1 1 1 1 2 3 3 4 6 7 7 7 7 5 3 2 1 2 2 3 3 3 4 4 4 3 1 0
3 2 1 1 1 0 -0 -0 -0 -0 -0 -0 -0 -0 -0 -1 0 1 1 1 0 0 1 1 2 4 6 7 7 6 5 4 3 2 1 2 2 3 3 3 4 3 3 1 -0
2 2 1 0 0 -0 -0 -0 -0 -0 -0 -0 -0 -0 -0 -0 0 1 1 2 1 1 0 0 1 2 4 5 6 6 5 4 4 2 1 1 2 2 2 3 3 2 1 0 -1
2 1 1 0 -0 -1 -0 -0 -0 -0 -0 -0 -0 -0 -0 -0 0 1 1 2 2 2 1 0 0 0 2 4 5 5 5 5 4 3 2 1 2 2 2 2 2 1 -0 -1 -1
2 2 1 0 -0 -0 -0 0 0 -0 -0 -0 -0 -0 -0 -0 0 1 1 2 3 2 1 0 -0 -0 1 3 4 5 5 5 4 4 3 2 2 2 2 1 1 0 -1 -1 -1
2 2 1 1 0 0 0 0 0 0 -0 -0 -0 -0 -0 -0 -0 0 1 2 3 2 2 1 0 -0 0 1 3 4 5 5 4 4 3 3 2 2 1 1 0 -0 -1 -1 -1
2 2 2 1 1 1 1 1 0 0 0 0 -0 -0 -0 -0 -0 0 0 1 2 2 2 2 1 0 0 1 2 4 5 5 4 4 4 3 3 2 1 1 0 -1 -1 -1 -1
2 2 2 2 2 2 1 1 1 1 1 0 -0 -0 -0 -0 0 1 1 1 2 2 2 2 1 1 1 2 3 4 4 4 4 4 4 4 3 3 2 1 1 -1 -1 -1 -1
3 3 3 3 2 2 2 1 1 1 1 0 0 -0 -0 -0 0 1 1 1 2 2 2 2 1 1 1 2 3 3 4 4 5 5 5 4 3 3 3 3 1 -0 -1 -1 -1
4 4 3 3 3 2 2 1 1 1 1 1 0 0 -0 -0 0 1 1 2 2 2 2 2 1 1 1 2 3 3 4 4 5 5 5 4 3 3 3 3 2 -0 -1 -1 -1